This demonstration page uses our WeatherBlox Daily Observations layout. Learn more.

Left ArrowRight Arrow

36.17497, -115.13722

Hourly Observations for July 17, 2021

Temp ( °F °C ) Dew Point ( °F °C ) Humidity (%) Winds ( mph kmh ) Pressure ( in mb ) Visibility ( mi km ) Precip ( " mm )
12:53 am 00:53 Clear 94 34.4 43 6.1 17 17 S 10 17 29.75 1007 10 16 0.00 0.00
1:53 am 01:53 Clear 94 34.4 42 5.6 17 17 S 10 17 29.75 1007 10 16 0.00 0.00
2:53 am 02:53 Clear 93 33.9 44 6.7 18 18 S 12 19 29.75 1008 10 16 0.00 0.00
3:53 am 03:53 Clear 92 33.3 44 6.7 19 19 S 14 22 29.77 1008 10 16 0.00 0.00
4:53 am 04:53 Clear 90 32.2 45 7.2 21 21 SE 8 13 29.79 1009 10 16 0.00 0.00
5:53 am 05:53 Sunny 87 30.6 45 7.2 23 23 E 6 9 29.82 1010 10 16 0.00 0.00
6:53 am 06:53 Sunny 89 31.7 56 13.3 33 33 ESE 10 17 29.84 1011 10 16 0.00 0.00
7:53 am 07:53 Sunny 91 32.8 58 14.4 33 33 ESE 9 15 29.87 1011 10 16 0.00 0.00
8:53 am 08:53 Sunny 94 34.4 55 12.8 27 27 E 8 13 29.88 1012 10 16 0.00 0.00
9:53 am 09:53 Sunny 98 36.7 53 11.7 22 22 E 12 19 29.88 1012 10 16 0.00 0.00
10:53 am 10:53 Sunny 100 37.8 50 10 18 18 E 12 19 29.88 1012 10 16 0.00 0.00
11:53 am 11:53 Sunny 103 39.4 51 10.6 18 18 E 12 19 29.86 1011 10 16 0.00 0.00
12:53 pm 12:53 Sunny 104 40 49 9.4 16 16 SE 12 19 29.84 1011 10 16 0.00 0.00
1:53 pm 13:53 Sunny 106 41.1 48 8.9 14 14 ESE 13 20 29.82 1010 10 16 0.00 0.00
2:53 pm 14:53 Sunny 105 40.6 52 11.1 17 17 VRB 6 9 29.80 1009 10 16 0.00 0.00
3:53 pm 15:53 Sunny 107 41.7 52 11.1 16 16 SE 15 24 29.78 1009 10 16 0.00 0.00
4:53 pm 16:53 Sunny 106 41.1 51 10.6 16 16 E 8 13 29.77 1008 10 16 0.00 0.00
5:53 pm 17:53 Sunny 106 41.1 51 10.6 16 16 SE 20 31 29.77 1008 10 16 0.00 0.00
6:53 pm 18:53 Sunny 105 40.6 52 11.1 17 17 SE 20 31 29.77 1008 10 16 0.00 0.00
7:53 pm 19:53 Sunny 101 38.3 56 13.3 22 22 SE 15 24 29.79 1009 10 16 0.00 0.00
8:53 pm 20:53 Clear 100 37.8 57 13.9 24 24 SSE 16 26 29.81 1010 10 16 0.00 0.00
9:53 pm 21:53 Clear 99 37.2 57 13.9 25 25 S 12 19 29.83 1010 10 16 0.00 0.00
10:53 pm 22:53 Clear 99 37.2 56 13.3 24 24 S 10 17 29.83 1010 10 16 0.00 0.00
11:53 pm 23:53 Clear 95 35 58 14.4 29 29 E 7 11 29.84 1011 10 16 0.00 0.00

Powered by AerisWeather